#timestamp,LO_Frequency,Hit,StdDev 
1506056415.3,286046999.6,N
1506056435.2,286046998.4,N
1506056455.9,286047000.5,N
1506056475.7,286046998.4,N
1506056495.5,286046997.0,N
1506056515.4,286046998.0,N
1506056535.2,286046996.4,N
1506056555.0,286047000.6,N
1506056555.9,286047000.6,N
1506056575.8,286046997.2,N
1506056595.6,286046995.2,N
1506056615.4,286046995.6,N
1506056635.3,286047002.8,N
1506056655.1,286046998.2,N
1506056656.0,286046998.2,N
1506056675.8,286047000.3,N
1506056695.7,286046997.1,N
1506056715.5,286046996.9,N
1506056735.3,286046999.7,N
1506056755.2,286047001.1,N
1506056775.9,286046999.1,N
1506056795.7,286046999.3,N
1506056815.5,286046996.6,N
1506056835.4,286046999.9,N
1506056855.2,286046998.3,N
1506056875.0,286046999.3,N
1506056875.9,286046999.3,N
1506056895.8,286047002.7,N
1506056915.6,286047002.3,N
1506056935.4,286046999.7,N
1506056955.3,286047000.6,N
1506056975.1,286046998.9,N
1506056995.8,286046998.4,N
1506057015.7,286047000.8,N
1506057035.5,286046999.2,N
1506057055.3,286046996.8,N
1506057075.2,286046998.0,N
1506057095.9,286046997.6,N
1506057115.7,286046996.5,N
1506057135.6,286046998.4,N
1506057155.4,286047000.7,N
1506057175.2,286046997.3,N
1506057195.0,286046996.5,N
1506057196.0,286046996.5,N
1506057215.8,286046999.0,N
1506057235.6,286046998.7,N
1506057255.4,286047000.5,N
1506057275.3,286046999.1,N
1506057295.1,286046996.7,N
1506057315.8,286046997.5,N
1506057335.7,286046994.9,Y
1506057355.5,286046995.0,P
1506057375.3,286046995.1,N
1506057395.2,286046992.0,P
1506057415.9,286046993.1,N
1506057435.7,286046991.9,Y
1506057455.6,286046996.8,P
1506057475.4,286046995.3,P
1506057495.2,286046995.3,P
1506057515.1,286046994.2,Y
1506057516.0,286046994.2,P
1506057535.8,286046998.8,N
1506057555.6,286046996.7,N
1506057575.5,286046996.3,N
1506057595.3,286046994.7,Y
1506057615.1,286047000.7,P
1506057635.9,286046999.7,N
1506057655.7,286047000.0,N
1506057675.5,286047002.3,N
1506057695.4,286047005.6,N
1506057715.2,286047006.4,N
1506057735.0,286047006.9,N
1506057735.9,286047006.9,N
1506057755.8,286047010.6,N
1506057775.6,286047011.9,N
1506057795.4,286047009.4,N
1506057815.3,286047010.4,N
1506057835.1,286047006.1,N
1506057836.0,286047006.1,N
1506057855.8,286047009.8,N
1506057875.6,286047007.7,N
1506057895.5,286047010.8,N
1506057915.3,286047008.9,N
1506057935.1,286047008.6,N
1506057955.9,286047008.7,N
1506057975.7,286047009.0,N
1506057995.5,286047008.9,N
1506058015.4,286047007.5,N
1506058035.2,286047005.1,N
1506058055.0,286047004.8,N
1506058055.9,286047004.8,N
1506058075.8,286047008.2,N
1506058095.6,286047011.7,Y
1506058115.4,286047003.5,P
1506058135.3,286047002.0,N
1506058155.1,286046999.8,N
1506058156.0,286046999.8,N
1506058175.8,286046998.1,N
1506058195.7,286046998.4,N
1506058215.5,286047001.2,N
1506058235.3,286046999.1,N
1506058255.1,286046997.0,N
1506058275.9,286046999.6,N
1506058295.7,286046999.6,N
1506058315.5,286046999.3,N
1506058335.4,286047000.8,N
1506058355.2,286046998.9,N
1506058375.0,286046999.6,N
1506058375.9,286046999.6,N
1506058395.8,286046995.0,N
1506058415.6,286046996.4,N
1506058435.4,286046993.5,N
1506058455.3,286046994.7,N
1506058475.1,286046994.0,N
1506058476.0,286046994.0,N
1506058495.8,286046996.1,N
1506058515.7,286046993.8,N
1506058535.5,286046992.2,N
1506058555.3,286046992.7,N
1506058575.1,286046992.5,N
1506058595.9,286046992.9,N
1506058615.7,286046990.8,N
1506058635.5,286046992.5,N
1506058655.4,286046992.3,N
1506058675.2,286046989.3,Y
1506058695.0,286046994.5,P
1506058695.9,286046994.5,P
1506058715.8,286046993.7,P
1506058735.6,286046994.2,Y
1506058755.4,286046997.6,P
1506058775.3,286046994.9,P
1506058795.1,286046996.8,N
1506058815.8,286046999.7,N
1506058835.7,286047003.9,N
1506058855.5,286047001.4,N
1506058875.3,286047005.0,N
1506058895.2,286047008.8,N
1506058915.9,286047007.9,N
1506058935.7,286047011.2,N
1506058955.6,286047015.3,N
1506058975.4,286047017.2,N
1506058995.2,286047020.4,N
1506059015.1,286047018.6,N
1506059016.0,286047018.6,N
1506059035.8,286047015.3,N
1506059055.6,286047013.5,N
1506059075.4,286047011.6,N
1506059095.3,286047011.9,N
1506059115.1,286047013.1,N
1506059135.8,286047018.7,N
1506059155.7,286047017.4,N
1506059175.5,286047016.1,N
1506059195.3,286047015.1,N
1506059215.2,286047015.4,N
1506059235.9,286047013.0,N
1506059255.7,286047016.7,N
1506059275.6,286047014.4,N
1506059295.4,286047016.1,N
1506059315.2,286047017.1,N
1506059335.1,286047013.6,N
1506059336.0,286047013.6,N
1506059355.8,286047010.9,N
1506059375.6,286047015.4,Y
1506059395.5,286047001.7,P
1506059415.3,286046999.7,N
1506059435.1,286046998.1,N
1506059455.9,286046999.3,N
1506059475.7,286046998.5,N
1506059495.5,286046998.6,N
1506059515.3,286046999.8,N
1506059535.2,286047002.4,N
1506059555.0,286047000.1,N
1506059555.9,286047000.1,N
1506059575.7,286047002.1,N
1506059595.6,286047000.0,N
1506059615.4,286046998.9,N
1506059635.2,286046995.4,N
1506059655.1,286046994.0,N
1506059656.0,286046994.0,N
1506059675.8,286046994.8,N
1506059695.6,286046992.8,N
1506059715.5,286046988.5,N
1506059735.3,286046987.4,N
1506059755.1,286046989.1,N
1506059775.9,286046988.0,N
1506059795.7,286046984.0,N
1506059815.5,286046986.2,N
1506059835.4,286046983.9,N
1506059855.2,286046986.8,N
1506059875.0,286046980.6,N
1506059875.9,286046980.6,N
1506059895.7,286046982.7,N
1506059915.6,286046982.4,N
1506059935.4,286046986.8,N
1506059955.2,286046986.2,N
1506059975.1,286046988.1,N
1506059976.0,286046988.1,N
1506059995.8,286046989.7,N
